TAM3788 SBRJ-SBBR

Flight info

Callsign TAM3788
Flight time N/A
Altitude 36000
Route MUDKA UM409 ISIPI
Aircraft A20N/M-SDE2E3FGHIRWXY/LB1

Departure

Time N/A
Airport Santos Dumont Airport (SBRJ)

Arrival

Time 2026-05-08 00:28
Airport Presidente Juscelino Kubitschek International Airport (SBBR)
Time Latitude Longitude Altitude Speed Heading
2026-05-07 23:49 -18.40069 -45.59872 36037 ft 462 kts 318°
2026-05-07 23:49 -18.34976 -45.63898 36041 ft 460 kts 317°
2026-05-07 23:50 -18.29907 -45.67942 36038 ft 460 kts 317°
2026-05-07 23:50 -18.24779 -45.71980 36043 ft 461 kts 318°
2026-05-07 23:51 -18.19628 -45.76000 36043 ft 461 kts 318°
2026-05-07 23:51 -18.14470 -45.80014 36044 ft 460 kts 318°
2026-05-07 23:52 -18.09362 -45.83986 36045 ft 459 kts 318°
2026-05-07 23:52 -18.04226 -45.87981 36045 ft 459 kts 318°
2026-05-07 23:53 -17.99085 -45.91978 36045 ft 459 kts 318°
2026-05-07 23:53 -17.93944 -45.95971 36042 ft 460 kts 318°
2026-05-07 23:54 -17.88834 -45.99936 36039 ft 459 kts 318°
2026-05-07 23:54 -17.83706 -46.03912 36035 ft 458 kts 318°
2026-05-07 23:55 -17.78574 -46.07890 36034 ft 458 kts 318°
2026-05-07 23:55 -17.73476 -46.11837 36031 ft 458 kts 318°
2026-05-07 23:56 -17.68346 -46.15807 36025 ft 458 kts 318°
2026-05-07 23:56 -17.63214 -46.19774 36023 ft 458 kts 318°
2026-05-07 23:57 -17.58092 -46.23732 36021 ft 457 kts 318°
2026-05-07 23:57 -17.52968 -46.27688 36014 ft 457 kts 318°
2026-05-07 23:58 -17.47878 -46.31615 36015 ft 457 kts 318°
2026-05-07 23:58 -17.42753 -46.35567 36012 ft 457 kts 319°
2026-05-07 23:59 -17.37632 -46.39513 36007 ft 456 kts 319°
2026-05-07 23:59 -17.32521 -46.43447 36005 ft 456 kts 319°
2026-05-08 00:00 -17.27448 -46.47351 36007 ft 456 kts 319°
2026-05-08 00:00 -17.22333 -46.51283 36012 ft 456 kts 319°
2026-05-08 00:01 -17.17219 -46.55212 36023 ft 456 kts 319°
2026-05-08 00:01 -17.12150 -46.59203 36010 ft 454 kts 315°
2026-05-08 00:02 -17.07388 -46.63431 36021 ft 452 kts 314°
2026-05-08 00:02 -17.02608 -46.67707 36026 ft 452 kts 314°
2026-05-08 00:03 -16.97823 -46.71974 36018 ft 452 kts 314°
2026-05-08 00:03 -16.93059 -46.76214 36020 ft 453 kts 314°
2026-05-08 00:04 -16.88263 -46.80477 36020 ft 453 kts 314°
2026-05-08 00:04 -16.83465 -46.84738 35805 ft 451 kts 314°
2026-05-08 00:05 -16.81069 -46.86867 35342 ft 453 kts 315°
2026-05-08 00:05 -16.78665 -46.89001 34873 ft 454 kts 315°
2026-05-08 00:05 -16.76281 -46.91117 34422 ft 456 kts 315°
2026-05-08 00:05 -16.73863 -46.93261 33963 ft 456 kts 315°
2026-05-08 00:06 -16.71442 -46.95407 33443 ft 455 kts 316°
2026-05-08 00:06 -16.69040 -46.97535 32937 ft 452 kts 316°
2026-05-08 00:06 -16.66646 -46.99655 32430 ft 449 kts 316°
2026-05-08 00:06 -16.64270 -47.01759 31955 ft 447 kts 316°
2026-05-08 00:07 -16.61911 -47.03847 31467 ft 444 kts 316°
2026-05-08 00:07 -16.59594 -47.05898 31006 ft 442 kts 317°
2026-05-08 00:07 -16.57259 -47.07964 30541 ft 439 kts 317°
2026-05-08 00:07 -16.54928 -47.10027 30078 ft 437 kts 317°
2026-05-08 00:08 -16.52613 -47.12074 29547 ft 435 kts 317°
2026-05-08 00:08 -16.50315 -47.14105 29025 ft 432 kts 317°
2026-05-08 00:08 -16.48028 -47.16126 28511 ft 430 kts 317°
2026-05-08 00:08 -16.45749 -47.18140 27999 ft 428 kts 318°
2026-05-08 00:09 -16.43512 -47.20115 27509 ft 426 kts 318°
2026-05-08 00:09 -16.41255 -47.22107 27020 ft 424 kts 318°
2026-05-08 00:09 -16.39002 -47.24089 26540 ft 422 kts 319°
2026-05-08 00:09 -16.36732 -47.26016 26065 ft 420 kts 320°
2026-05-08 00:10 -16.34454 -47.27922 25592 ft 418 kts 320°
2026-05-08 00:10 -16.32191 -47.29812 25144 ft 416 kts 320°
2026-05-08 00:10 -16.29966 -47.31670 24694 ft 414 kts 320°
2026-05-08 00:10 -16.27723 -47.33544 24258 ft 412 kts 321°
2026-05-08 00:11 -16.25491 -47.35408 23824 ft 410 kts 321°
2026-05-08 00:11 -16.23270 -47.37263 23343 ft 408 kts 321°
2026-05-08 00:11 -16.21058 -47.39110 22833 ft 406 kts 321°
2026-05-08 00:11 -16.18859 -47.40946 22331 ft 404 kts 321°
2026-05-08 00:12 -16.16676 -47.42769 21845 ft 401 kts 321°
2026-05-08 00:12 -16.14530 -47.44559 21367 ft 398 kts 321°
2026-05-08 00:12 -16.12374 -47.46359 20897 ft 395 kts 321°
2026-05-08 00:12 -16.10237 -47.48142 20438 ft 392 kts 321°
2026-05-08 00:13 -16.08120 -47.49910 19988 ft 389 kts 321°
2026-05-08 00:13 -16.06018 -47.51665 19542 ft 386 kts 321°
2026-05-08 00:13 -16.03948 -47.53393 19084 ft 377 kts 321°
2026-05-08 00:13 -16.01918 -47.55089 18655 ft 373 kts 322°
2026-05-08 00:14 -15.99912 -47.56767 18206 ft 365 kts 322°
2026-05-08 00:14 -15.97990 -47.58374 17688 ft 353 kts 322°
2026-05-08 00:14 -15.96349 -47.60199 17172 ft 342 kts 302°
2026-05-08 00:14 -15.95542 -47.62466 16677 ft 332 kts 276°
2026-05-08 00:15 -15.95608 -47.64818 16234 ft 322 kts 265°
2026-05-08 00:15 -15.95810 -47.67134 15833 ft 322 kts 265°
2026-05-08 00:15 -15.96030 -47.69455 15430 ft 322 kts 265°
2026-05-08 00:15 -15.96254 -47.71738 15037 ft 321 kts 265°
2026-05-08 00:16 -15.96435 -47.74023 14624 ft 313 kts 267°
2026-05-08 00:16 -15.96548 -47.76250 14208 ft 304 kts 269°
2026-05-08 00:16 -15.96625 -47.78415 13792 ft 296 kts 270°
2026-05-08 00:16 -15.96671 -47.80529 13326 ft 289 kts 270°
2026-05-08 00:17 -15.96744 -47.82593 12946 ft 282 kts 269°
2026-05-08 00:17 -15.96871 -47.84606 12502 ft 277 kts 268°
2026-05-08 00:17 -15.97026 -47.86558 12075 ft 273 kts 267°
2026-05-08 00:17 -15.97205 -47.88507 11641 ft 268 kts 266°
2026-05-08 00:18 -15.97402 -47.90415 11212 ft 263 kts 266°
2026-05-08 00:18 -15.97608 -47.92286 10789 ft 259 kts 268°
2026-05-08 00:18 -15.97717 -47.94138 10374 ft 255 kts 270°
2026-05-08 00:18 -15.97794 -47.95965 10078 ft 252 kts 271°
2026-05-08 00:19 -15.97859 -47.97781 9960 ft 251 kts 271°
2026-05-08 00:19 -15.97929 -47.99596 9882 ft 250 kts 270°
2026-05-08 00:19 -15.98035 -48.01364 9572 ft 248 kts 269°
2026-05-08 00:19 -15.98161 -48.03141 9121 ft 244 kts 268°
2026-05-08 00:20 -15.98306 -48.04856 8798 ft 232 kts 267°
2026-05-08 00:20 -15.98466 -48.06480 8456 ft 221 kts 266°
2026-05-08 00:20 -15.98642 -48.08041 8144 ft 213 kts 266°
2026-05-08 00:20 -15.98809 -48.09568 7857 ft 212 kts 269°
2026-05-08 00:21 -15.98847 -48.11097 7580 ft 211 kts 273°
2026-05-08 00:21 -15.98838 -48.12618 7250 ft 210 kts 274°
2026-05-08 00:21 -15.98700 -48.14108 6906 ft 204 kts 291°
2026-05-08 00:21 -15.97945 -48.15266 6556 ft 194 kts 327°
2026-05-08 00:22 -15.96731 -48.15739 6198 ft 185 kts 358°
2026-05-08 00:22 -15.95490 -48.15561 5927 ft 176 kts 22°
2026-05-08 00:22 -15.94474 -48.14932 5763 ft 168 kts 37°
2026-05-08 00:22 -15.93544 -48.14199 5631 ft 167 kts 37°
2026-05-08 00:23 -15.92623 -48.13455 5581 ft 169 kts 38°
2026-05-08 00:23 -15.91712 -48.12698 5509 ft 167 kts 38°
2026-05-08 00:23 -15.90821 -48.11934 5424 ft 162 kts 40°
2026-05-08 00:23 -15.90021 -48.11195 5296 ft 151 kts 48°
2026-05-08 00:24 -15.89511 -48.10250 5246 ft 152 kts 70°
2026-05-08 00:24 -15.89258 -48.09175 5238 ft 155 kts 78°
2026-05-08 00:24 -15.89112 -48.08063 5238 ft 156 kts 79°
2026-05-08 00:24 -15.88967 -48.06956 5171 ft 155 kts 80°
2026-05-08 00:25 -15.88864 -48.05838 5156 ft 156 kts 82°
2026-05-08 00:25 -15.88793 -48.04721 5175 ft 154 kts 83°
2026-05-08 00:25 -15.88726 -48.03605 5185 ft 155 kts 84°
2026-05-08 00:25 -15.88676 -48.02522 5191 ft 148 kts 83°
2026-05-08 00:26 -15.88566 -48.01474 5032 ft 144 kts 79°
2026-05-08 00:26 -15.88474 -48.00442 4836 ft 143 kts 85°
2026-05-08 00:26 -15.88429 -47.99411 4639 ft 143 kts 84°
2026-05-08 00:26 -15.88352 -47.98382 4416 ft 143 kts 84°
2026-05-08 00:27 -15.88290 -47.97355 4229 ft 143 kts 85°
2026-05-08 00:27 -15.88218 -47.96325 4025 ft 143 kts 85°
2026-05-08 00:27 -15.88149 -47.95294 3814 ft 143 kts 85°
2026-05-08 00:27 -15.88086 -47.94273 3635 ft 144 kts 86°
2026-05-08 00:28 -15.88028 -47.93249 3494 ft 136 kts 85°
2026-05-08 00:28 -15.87970 -47.92397 3478 ft 93 kts 86°
2026-05-08 00:28 -15.87925 -47.91922 3473 ft 30 kts 70°
2026-05-08 00:28 -15.87849 -47.91765 3471 ft 23 kts 57°
2026-05-08 00:29 -15.87786 -47.91664 3471 ft 13 kts 57°
2026-05-08 00:29 -15.87736 -47.91588 3472 ft 12 kts 56°
2026-05-08 00:29 -15.87674 -47.91551 3473 ft 10 kts 357°
2026-05-08 00:29 -15.87608 -47.91555 3471 ft 9 kts 356°
2026-05-08 00:30 -15.87527 -47.91560 3465 ft 14 kts 358°
2026-05-08 00:30 -15.87440 -47.91567 3467 ft 11 kts 354°
2026-05-08 00:30 -15.87366 -47.91572 3466 ft 10 kts 356°
2026-05-08 00:30 -15.87295 -47.91577 3467 ft 10 kts 356°
2026-05-08 00:31 -15.87227 -47.91582 3467 ft 10 kts 356°
2026-05-08 00:31 -15.87162 -47.91585 3466 ft 9 kts 357°
2026-05-08 00:31 -15.87102 -47.91589 3467 ft 9 kts 356°
2026-05-08 00:31 -15.87055 -47.91610 3468 ft 7 kts 295°
2026-05-08 00:32 -15.87055 -47.91655 3468 ft 6 kts 268°
2026-05-08 00:32 -15.87072 -47.91684 3468 ft 4 kts 202°
2026-05-08 00:32 -15.87101 -47.91683 3468 ft 6 kts 176°
2026-05-08 00:32 -15.87144 -47.91683 3468 ft 1 kts 209°
2026-05-08 00:33 -15.87151 -47.91721 3468 ft 4 kts 270°
2026-05-08 00:33 -15.87151 -47.91735 3468 ft 0 kts 269°